sampling_time,wmo_synop_id,msc_id,stn_nam,stn_elev,lat,long,stn_typ,date_tm,rpt_typ,result_time,crnt_buoy_lat,crnt_buoy_lat_qa_summary,crnt_buoy_long,crnt_buoy_long_qa_summary,avg_air_temp_pst10mts,avg_air_temp_pst10mts_qa_summary,avg_sea_sfc_temp_pst10mts,avg_sea_sfc_temp_pst10mts_qa_summary,avg_batry_volt_pst10mts,avg_batry_volt_pst10mts_qa_summary,avg_solr_panl_crnt_pst10mts,avg_solr_panl_crnt_pst10mts_qa_summary,avg_wtr_lvl_snsr_volt_pst10mts,avg_wtr_lvl_snsr_volt_pst10mts_qa_summary,avg_wave_hgt_pst20mts,avg_wave_hgt_pst20mts_qa_summary,pk_wave_hgt_pst20mts,pk_wave_hgt_pst20mts_qa_summary,sig_wave_pd_pst20mts,sig_wave_pd_pst20mts_qa_summary,sig_wave_hgt_pst20mts,sig_wave_hgt_pst20mts_qa_summary,avg_max_wave_hgt_pst20mts,avg_max_wave_hgt_pst20mts_qa_summary,avg_max_wave_pd_pst20mts,avg_max_wave_pd_pst20mts_qa_summary,avg_wave_pd_pst20mts,avg_wave_pd_pst20mts_qa_summary,pk_wave_pd_pst20mts,pk_wave_pd_pst20mts_qa_summary,avg_stn_pres_pst10mts,avg_stn_pres_pst10mts_qa_summary,avg_wnd_spd_pst10mts,avg_wnd_spd_pst10mts_qa_summary,avg_wnd_dir_pst10mts,avg_wnd_dir_pst10mts_qa_summary,max_avg_wnd_spd_pst10mts,max_avg_wnd_spd_pst10mts_qa_summary,wnd_snsr_vert_disp,wnd_snsr_vert_disp_qa_summary,pres_tend_char_pst3hrs,pres_tend_char_pst3hrs_data_flag,pres_tend_amt_pst3hrs,pres_tend_amt_pst3hrs_data_flag,avg_mslp_pst10mts,avg_mslp_pst10mts_data_flag,avg_stn_pres_pst10mts_1,avg_stn_pres_pst10mts_2,avg_wnd_spd_pst10mts_1,avg_wnd_spd_pst10mts_2,avg_wnd_dir_pst10mts_1,avg_wnd_dir_pst10mts_2,max_avg_wnd_spd_pst10mts_1,max_avg_wnd_spd_pst10mts_2,wnd_snsr_vert_disp_1,wnd_snsr_vert_disp_2
2020-10-18T00:00:00Z,44489,9302001,West Chedabucto Bay,0.0,45.48687,-61.14100000000001,18,2020-10-18T00:00:00.000Z,108,2020-10-18T00:05:20.268Z,45.48745,100,-61.14135,100,15.9,100,12.9,100,12.6,100,0.0,100,3.6,100,0.6,100,1.3,100,4.4,100,0.8,100,1.0,100,4.2,100,3.6,100,4.7,100,1019.0,100,33.5,100,155,100,37.8,100,5.0,100,8,1,-0.3,1,1019.0,1,1019.0,1019.0,33.5,32.4,155,160,37.8,37.1,5.0,4.0
2020-10-18T00:10:00Z,44489,9302001,West Chedabucto Bay,0.0,45.48687,-61.14100000000001,18,2020-10-18T00:10:00.000Z,110,2020-10-18T00:13:21.091Z,,-1,,-1,16.5,100,13.6,100,12.6,100,0.0,100,3.6,100,,-1,,-1,,-1,,-1,,-1,,-1,,-1,,-1,1019.2,100,32.8,100,162,100,38.9,100,5.0,100,0,1,0.0,1,1019.2,1,1019.2,1019.3,32.8,31.7,162,167,38.9,37.1,5.0,4.0
2020-10-18T00:20:00Z,44489,9302001,West Chedabucto Bay,0.0,45.48687,-61.14100000000001,18,2020-10-18T00:20:00.000Z,110,2020-10-18T00:23:20.155Z,45.48748,100,-61.14133,100,15.9,100,12.9,100,12.6,100,0.0,100,3.6,100,,-1,,-1,,-1,,-1,,-1,,-1,,-1,,-1,1019.1,100,32.8,100,160,100,44.6,100,5.0,100,8,1,-0.1,1,1019.1,1,1019.1,1019.2,32.8,31.7,160,165,44.6,43.9,5.0,4.0
2020-10-18T00:30:00Z,44489,9302001,West Chedabucto Bay,0.0,45.48687,-61.14100000000001,18,2020-10-18T00:30:00.000Z,110,2020-10-18T00:33:23.565Z,45.48748,100,-61.14135,100,16.2,100,12.9,100,12.6,100,0.0,100,3.6,100,,-1,,-1,,-1,,-1,,-1,,-1,,-1,,-1,1019.0,100,34.9,100,163,100,41.8,100,5.0,100,8,1,-0.2,1,1019.0,1,1019.0,1019.0,34.9,33.8,163,169,41.8,40.3,5.0,4.0
2020-10-18T00:40:00Z,44489,9302001,West Chedabucto Bay,0.0,45.48687,-61.14100000000001,18,2020-10-18T00:40:00.000Z,110,2020-10-18T00:43:39.412Z,45.48747,100,-61.14131999999999,100,16.2,100,12.9,100,12.6,100,0.0,100,3.6,100,,-1,,-1,,-1,,-1,,-1,,-1,,-1,,-1,1019.1,100,35.6,100,166,100,44.3,100,5.0,100,7,1,-0.2,1,1019.1,1,1019.1,1019.1,35.6,34.2,166,171,44.3,42.8,5.0,4.0
2020-10-18T00:50:00Z,44489,9302001,West Chedabucto Bay,0.0,45.48687,-61.14100000000001,18,2020-10-18T00:50:00.000Z,110,2020-10-18T00:53:35.371Z,45.48748,100,-61.14123000000001,100,16.6,100,12.9,100,12.6,100,0.0,100,3.6,100,,-1,,-1,,-1,,-1,,-1,,-1,,-1,,-1,1019.3,100,44.3,100,190,100,53.6,100,5.0,100,5,1,-0.1,1,1019.3,1,1019.3,1019.3,44.3,42.8,190,195,53.6,53.3,5.0,4.0
2020-10-18T01:00:00Z,44489,9302001,West Chedabucto Bay,0.0,45.48687,-61.14100000000001,18,2020-10-18T01:00:00.000Z,108,2020-10-18T01:04:01.613Z,45.48747,100,-61.14122,100,15.7,100,12.9,100,12.6,100,0.0,100,3.6,100,0.6,100,1.4,100,4.2,100,0.9,100,1.2,100,4.2,100,3.5,100,5.1,100,1019.7,100,40.3,100,201,100,54.4,100,5.0,100,3,1,0.2,1,1019.7,1,1019.7,1019.7,40.3,39.2,201,207,54.4,52.2,5.0,4.0
2020-10-18T01:10:00Z,44489,9302001,West Chedabucto Bay,0.0,45.48687,-61.14100000000001,18,2020-10-18T01:10:00.000Z,110,2020-10-18T01:16:43.057Z,45.48747,100,-61.14118000000001,100,14.9,100,12.9,100,12.6,100,0.0,100,3.6,100,,-1,,-1,,-1,,-1,,-1,,-1,,-1,,-1,1020.1,100,40.3,100,211,100,47.2,100,5.0,100,3,1,0.6,1,1020.1,1,1020.1,1020.1,40.3,39.2,211,216,47.2,47.9,5.0,4.0
2020-10-18T01:20:00Z,44489,9302001,West Chedabucto Bay,0.0,45.48687,-61.14100000000001,18,2020-10-18T01:20:00.000Z,110,2020-10-18T01:23:39.591Z,45.48745,100,-61.141169999999995,100,14.2,100,12.9,100,12.6,100,0.0,100,3.6,100,,-1,,-1,,-1,,-1,,-1,,-1,,-1,,-1,1020.3,100,33.1,100,211,100,40.7,100,5.0,100,3,1,0.8,1,1020.3,1,1020.3,1020.3,33.1,32.0,211,216,40.7,40.3,5.0,4.0
2020-10-18T01:30:00Z,44489,9302001,West Chedabucto Bay,0.0,45.48687,-61.14100000000001,18,2020-10-18T01:30:00.000Z,110,2020-10-18T01:33:53.525Z,45.487429999999996,100,-61.1412,100,14.0,100,12.9,100,12.6,100,0.0,100,3.6,100,,-1,,-1,,-1,,-1,,-1,,-1,,-1,,-1,1020.4,100,32.8,100,207,100,37.4,100,5.0,100,3,1,1.0,1,1020.4,1,1020.4,1020.4,32.8,31.3,207,212,37.4,36.7,5.0,4.0
2020-10-18T01:40:00Z,44489,9302001,West Chedabucto Bay,0.0,45.48687,-61.14100000000001,18,2020-10-18T01:40:00.000Z,110,2020-10-18T01:42:52.395Z,45.48747,100,-61.14118000000001,100,14.0,100,12.9,100,12.6,100,0.0,100,3.6,100,,-1,,-1,,-1,,-1,,-1,,-1,,-1,,-1,1020.6,100,37.1,100,206,100,44.3,100,5.0,100,3,1,1.3,1,1020.6,1,1020.6,1020.6,37.1,36.0,206,211,44.3,43.2,5.0,4.0
2020-10-18T01:50:00Z,44489,9302001,West Chedabucto Bay,0.0,45.48687,-61.14100000000001,18,2020-10-18T01:50:00.000Z,110,2020-10-18T01:52:55.287Z,45.487429999999996,100,-61.14115,100,13.8,100,12.9,100,12.5,100,0.0,100,3.6,100,,-1,,-1,,-1,,-1,,-1,,-1,,-1,,-1,1020.7,100,34.9,100,206,100,46.1,100,5.0,100,3,1,1.5,1,1020.7,1,1020.7,1020.8,34.9,33.5,206,212,46.1,46.4,5.0,4.0
2020-10-18T02:00:00Z,44489,9302001,West Chedabucto Bay,0.0,45.48687,-61.14100000000001,18,2020-10-18T02:00:00.000Z,108,2020-10-18T02:03:08.888Z,45.48748,100,-61.14115,100,13.7,100,12.9,100,12.5,100,0.0,100,3.6,100,0.7,100,1.6,100,4.1,100,1.1,100,1.3,100,4.1,100,3.6,100,3.4,100,1020.9,100,34.9,100,214,100,44.3,100,5.0,100,3,1,1.7,1,1020.9,1,1020.9,1020.9,34.9,33.8,214,219,44.3,42.8,5.0,4.0
2020-10-18T02:10:00Z,44489,9302001,West Chedabucto Bay,0.0,45.48687,-61.14100000000001,18,2020-10-18T02:10:00.000Z,110,2020-10-18T02:15:57.561Z,45.48745,100,-61.141169999999995,100,13.6,100,12.9,100,12.6,100,0.0,100,3.6,100,,-1,,-1,,-1,,-1,,-1,,-1,,-1,,-1,1021.2,100,33.8,100,218,100,41.0,100,5.0,100,3,1,1.9,1,1021.2,1,1021.2,1021.2,33.8,32.8,218,223,41.0,38.5,5.0,4.0
2020-10-18T02:20:00Z,44489,9302001,West Chedabucto Bay,0.0,45.48687,-61.14100000000001,18,2020-10-18T02:20:00.000Z,110,2020-10-18T02:22:57.450Z,45.48745,100,-61.14115,100,13.5,100,12.9,100,12.6,100,0.0,100,3.6,100,,-1,,-1,,-1,,-1,,-1,,-1,,-1,,-1,1021.5,100,29.9,100,223,100,36.0,100,5.0,100,3,1,2.3,1,1021.5,1,1021.5,1021.5,29.9,28.8,223,228,36.0,35.6,5.0,4.0
2020-10-18T02:30:00Z,44489,9302001,West Chedabucto Bay,0.0,45.48687,-61.14100000000001,18,2020-10-18T02:30:00.000Z,110,2020-10-18T02:33:00.921Z,45.487429999999996,100,-61.14115,100,13.5,100,12.9,100,12.5,100,0.0,100,3.6,100,,-1,,-1,,-1,,-1,,-1,,-1,,-1,,-1,1022.0,100,28.4,100,237,100,34.2,100,5.0,100,3,1,2.7,1,1022.0,1,1022.0,1022.0,28.4,27.4,237,242,34.2,33.8,5.0,4.0
2020-10-18T02:40:00Z,44489,9302001,West Chedabucto Bay,0.0,45.48687,-61.14100000000001,18,2020-10-18T02:40:00.000Z,110,2020-10-18T02:42:56.760Z,45.48742,100,-61.14117,100,13.4,100,12.9,100,12.5,100,0.0,100,3.6,100,,-1,,-1,,-1,,-1,,-1,,-1,,-1,,-1,1022.3,100,28.8,100,246,100,36.4,100,5.0,100,3,1,3.2,1,1022.3,1,1022.3,1022.4,28.8,28.1,246,251,36.4,35.3,5.0,4.0
2020-10-18T02:50:00Z,44489,9302001,West Chedabucto Bay,0.0,45.48687,-61.14100000000001,18,2020-10-18T02:50:00.000Z,110,2020-10-18T02:53:00.302Z,45.48742,100,-61.141169999999995,100,13.3,100,12.9,100,12.5,100,0.0,100,3.6,100,,-1,,-1,,-1,,-1,,-1,,-1,,-1,,-1,1022.8,100,26.3,100,244,100,31.0,100,5.0,100,3,1,3.6,1,1022.8,1,1022.8,1022.8,26.3,25.6,244,249,31.0,30.2,5.0,4.0
2020-10-18T03:00:00Z,44489,9302001,West Chedabucto Bay,0.0,45.48687,-61.14100000000001,18,2020-10-18T03:00:00.000Z,108,2020-10-18T03:03:21.685Z,45.48742,100,-61.14115,100,13.2,100,12.9,100,12.5,100,0.0,100,3.6,100,0.6,100,1.3,100,4.5,100,0.9,100,1.1,100,4.8,100,3.7,100,6.1,100,1023.2,100,23.0,100,243,100,28.1,100,5.0,100,3,1,4.2,1,1023.2,1,1023.2,1023.2,23.0,22.7,243,249,28.1,27.7,5.0,4.0
2020-10-18T03:10:00Z,44489,9302001,West Chedabucto Bay,0.0,45.48687,-61.14100000000001,18,2020-10-18T03:10:00.000Z,110,2020-10-18T03:16:14.656Z,45.48742,100,-61.141130000000004,100,13.3,100,12.8,100,12.5,100,0.0,100,3.6,100,,-1,,-1,,-1,,-1,,-1,,-1,,-1,,-1,1023.4,100,24.5,100,255,100,31.3,100,5.0,100,3,1,4.1,1,1023.4,1,1023.4,1023.4,24.5,23.8,255,260,31.3,30.6,5.0,4.0
2020-10-18T03:20:00Z,44489,9302001,West Chedabucto Bay,0.0,45.48687,-61.14100000000001,18,2020-10-18T03:20:00.000Z,110,2020-10-18T03:23:17.982Z,45.48742,100,-61.14112,100,13.2,100,12.8,100,12.5,100,0.0,100,3.6,100,,-1,,-1,,-1,,-1,,-1,,-1,,-1,,-1,1023.5,100,27.7,100,255,100,35.6,100,5.0,100,3,1,4.4,1,1023.5,1,1023.5,1023.5,27.7,27.0,255,260,35.6,34.9,5.0,4.0
2020-10-18T03:30:00Z,44489,9302001,West Chedabucto Bay,0.0,45.48687,-61.14100000000001,18,2020-10-18T03:30:00.000Z,110,2020-10-18T03:33:24.163Z,45.48742,100,-61.141130000000004,100,12.9,100,12.8,100,12.5,100,0.0,100,3.6,100,,-1,,-1,,-1,,-1,,-1,,-1,,-1,,-1,1023.7,100,26.3,100,255,100,30.2,100,5.0,100,3,1,4.7,1,1023.7,1,1023.7,1023.7,26.3,25.9,255,260,30.2,30.2,5.0,4.0
2020-10-18T03:40:00Z,44489,9302001,West Chedabucto Bay,0.0,45.48687,-61.14100000000001,18,2020-10-18T03:40:00.000Z,110,2020-10-18T03:43:16.787Z,45.48742,100,-61.14112,100,12.7,100,12.8,100,12.5,100,0.0,100,3.6,100,,-1,,-1,,-1,,-1,,-1,,-1,,-1,,-1,1023.7,100,26.6,100,251,100,31.0,100,5.0,100,1,1,4.7,1,1023.7,1,1023.7,1023.8,26.6,26.3,251,256,31.0,30.2,5.0,4.0
2020-10-18T03:50:00Z,44489,9302001,West Chedabucto Bay,0.0,45.48687,-61.14100000000001,18,2020-10-18T03:50:00.000Z,110,2020-10-18T03:53:18.676Z,45.48742,100,-61.14115,100,12.4,100,12.8,100,12.5,100,0.0,100,3.6,100,,-1,,-1,,-1,,-1,,-1,,-1,,-1,,-1,1024.0,100,30.2,100,253,100,36.7,100,5.0,100,1,1,4.7,1,1024.0,1,1024.0,1024.0,30.2,29.5,253,258,36.7,36.4,5.0,4.0
2020-10-18T04:00:00Z,44489,9302001,West Chedabucto Bay,0.0,45.48687,-61.14100000000001,18,2020-10-18T04:00:00.000Z,108,2020-10-18T04:03:31.219Z,45.4874,100,-61.14113,100,12.1,100,12.8,100,12.5,100,0.0,100,3.6,100,0.5,100,1.3,100,4.6,100,0.8,100,1.0,100,4.6,100,3.7,100,6.1,100,1024.3,100,29.2,100,254,100,36.0,100,5.0,100,1,1,4.6,1,1024.3,1,1024.3,1024.3,29.2,28.4,254,259,36.0,35.6,5.0,4.0
2020-10-18T04:10:00Z,44489,9302001,West Chedabucto Bay,0.0,45.48687,-61.14100000000001,18,2020-10-18T04:10:00.000Z,110,2020-10-18T04:16:28.865Z,45.4874,100,-61.141130000000004,100,11.9,100,12.8,100,12.5,100,0.0,100,3.6,100,,-1,,-1,,-1,,-1,,-1,,-1,,-1,,-1,1024.6,100,28.1,100,258,100,32.4,100,5.0,100,3,1,4.5,1,1024.6,1,1024.6,1024.6,28.1,27.7,258,263,32.4,31.7,5.0,4.0
2020-10-18T04:20:00Z,44489,9302001,West Chedabucto Bay,0.0,45.48687,-61.14100000000001,18,2020-10-18T04:20:00.000Z,110,2020-10-18T04:22:46.841Z,45.4874,100,-61.14113,100,11.6,100,12.8,100,12.5,100,0.0,100,3.6,100,,-1,,-1,,-1,,-1,,-1,,-1,,-1,,-1,1024.9,100,29.2,100,262,100,33.5,100,5.0,100,3,1,4.6,1,1024.9,1,1024.9,1024.9,29.2,28.4,262,267,33.5,32.8,5.0,4.0
2020-10-18T04:30:00Z,44489,9302001,West Chedabucto Bay,0.0,45.48687,-61.14100000000001,18,2020-10-18T04:30:00.000Z,110,2020-10-18T04:32:41.594Z,45.4874,100,-61.14113,100,11.3,100,12.8,100,12.5,100,0.0,100,3.6,100,,-1,,-1,,-1,,-1,,-1,,-1,,-1,,-1,1025.3,100,28.1,100,262,100,34.2,100,5.0,100,2,1,4.9,1,1025.3,1,1025.3,1025.3,28.1,27.4,262,267,34.2,33.1,5.0,4.0
2020-10-18T04:40:00Z,44489,9302001,West Chedabucto Bay,0.0,45.48687,-61.14100000000001,18,2020-10-18T04:40:00.000Z,110,2020-10-18T04:42:34.901Z,45.48742,100,-61.1411,100,11.0,100,12.8,100,12.5,100,0.0,100,3.6,100,,-1,,-1,,-1,,-1,,-1,,-1,,-1,,-1,1025.5,100,29.5,100,269,100,38.2,100,5.0,100,2,1,4.9,1,1025.5,1,1025.5,1025.5,29.5,28.8,269,274,38.2,36.4,5.0,4.0
2020-10-18T04:50:00Z,44489,9302001,West Chedabucto Bay,0.0,45.48687,-61.14100000000001,18,2020-10-18T04:50:00.000Z,110,2020-10-18T04:52:33.789Z,45.48742,100,-61.14113,100,10.7,100,12.7,100,12.5,100,0.0,100,3.6,100,,-1,,-1,,-1,,-1,,-1,,-1,,-1,,-1,1025.8,100,26.3,100,276,100,34.6,100,5.0,100,1,1,5.0,1,1025.8,1,1025.8,1025.8,26.3,25.9,276,281,34.6,33.5,5.0,4.0
2020-10-18T05:00:00Z,44489,9302001,West Chedabucto Bay,0.0,45.48687,-61.14100000000001,18,2020-10-18T05:00:00.000Z,108,2020-10-18T05:02:34.981Z,45.48743,100,-61.14115,100,10.6,100,12.7,100,12.5,100,0.0,100,3.6,100,0.4,100,1.4,100,5.1,100,0.7,100,0.9,100,5.4,100,3.8,100,5.9,100,1026.2,100,24.8,100,290,100,32.8,100,5.0,100,1,1,5.3,1,1026.2,1,1026.2,1026.2,24.8,24.1,290,295,32.8,32.4,5.0,4.0
2020-10-18T05:10:00Z,44489,9302001,West Chedabucto Bay,0.0,45.48687,-61.14100000000001,18,2020-10-18T05:10:00.000Z,110,2020-10-18T05:15:42.058Z,45.487429999999996,100,-61.14115,100,10.4,100,12.7,100,12.5,100,0.0,100,3.6,100,,-1,,-1,,-1,,-1,,-1,,-1,,-1,,-1,1026.2,100,29.5,100,289,100,35.6,100,5.0,100,1,1,5.1,1,1026.2,1,1026.2,1026.2,29.5,28.8,289,295,35.6,34.9,5.0,4.0
2020-10-18T05:20:00Z,44489,9302001,West Chedabucto Bay,0.0,45.48687,-61.14100000000001,18,2020-10-18T05:20:00.000Z,110,2020-10-18T05:22:36.511Z,45.48742,100,-61.14113,100,10.0,100,12.7,100,12.5,100,0.0,100,3.6,100,,-1,,-1,,-1,,-1,,-1,,-1,,-1,,-1,1026.4,100,32.8,100,284,100,41.8,100,5.0,100,1,1,4.9,1,1026.4,1,1026.4,1026.4,32.8,31.7,284,289,41.8,41.0,5.0,4.0
2020-10-18T05:30:00Z,44489,9302001,West Chedabucto Bay,0.0,45.48687,-61.14100000000001,18,2020-10-18T05:30:00.000Z,110,2020-10-18T05:32:48.740Z,45.4874,100,-61.141130000000004,100,9.7,100,12.7,100,12.5,100,0.0,100,3.6,100,,-1,,-1,,-1,,-1,,-1,,-1,,-1,,-1,1026.5,100,33.8,100,285,100,44.6,100,5.0,100,1,1,4.6,1,1026.5,1,1026.5,1026.6,33.8,33.1,285,290,44.6,43.6,5.0,4.0
2020-10-18T05:40:00Z,44489,9302001,West Chedabucto Bay,0.0,45.48687,-61.14100000000001,18,2020-10-18T05:40:00.000Z,110,2020-10-18T05:43:01.637Z,45.4874,100,-61.14115,100,9.5,100,12.7,100,12.5,100,0.0,100,3.6,100,,-1,,-1,,-1,,-1,,-1,,-1,,-1,,-1,1026.6,100,37.8,100,287,100,45.7,100,5.0,100,1,1,4.2,1,1026.6,1,1026.6,1026.6,37.8,36.7,287,292,45.7,45.7,5.0,4.0
2020-10-18T05:50:00Z,44489,9302001,West Chedabucto Bay,0.0,45.48687,-61.14100000000001,18,2020-10-18T05:50:00.000Z,110,2020-10-18T05:53:04.439Z,45.48733,100,-61.141119999999994,100,9.4,100,12.7,100,12.5,100,0.0,100,3.6,100,,-1,,-1,,-1,,-1,,-1,,-1,,-1,,-1,1026.8,100,37.4,100,299,100,47.5,100,5.0,100,1,1,4.1,1,1026.8,1,1026.8,1026.9,37.4,36.4,299,304,47.5,47.2,5.0,4.0
2020-10-18T06:00:00Z,44489,9302001,West Chedabucto Bay,0.0,45.48687,-61.14100000000001,18,2020-10-18T06:00:00.000Z,108,2020-10-18T06:03:15.001Z,45.48732,100,-61.14112,100,9.2,100,12.7,100,12.5,100,0.0,100,3.6,100,0.5,100,1.1,100,4.1,100,0.7,100,0.8,100,4.4,100,3.2,100,6.9,100,1027.4,100,33.5,100,302,100,40.3,100,5.0,100,3,1,4.2,1,1027.4,1,1027.4,1027.4,33.5,32.8,302,308,40.3,39.2,5.0,4.0
2020-10-18T06:10:00Z,44489,9302001,West Chedabucto Bay,0.0,45.48687,-61.14100000000001,18,2020-10-18T06:10:00.000Z,110,2020-10-18T06:16:03.820Z,45.48735,100,-61.1411,100,9.0,100,12.7,100,12.5,100,0.0,100,3.6,100,,-1,,-1,,-1,,-1,,-1,,-1,,-1,,-1,1027.4,100,35.6,100,298,100,44.6,100,5.0,100,2,1,4.0,1,1027.4,1,1027.4,1027.4,35.6,34.9,298,303,44.6,43.6,5.0,4.0
2020-10-18T06:20:00Z,44489,9302001,West Chedabucto Bay,0.0,45.48687,-61.14100000000001,18,2020-10-18T06:20:00.000Z,110,2020-10-18T06:23:04.925Z,45.48735,100,-61.141119999999994,100,8.9,100,12.7,100,12.5,100,0.0,100,3.6,100,,-1,,-1,,-1,,-1,,-1,,-1,,-1,,-1,1027.5,100,32.4,100,295,100,40.3,100,5.0,100,1,1,4.0,1,1027.5,1,1027.5,1027.5,32.4,31.7,295,300,40.3,39.6,5.0,4.0
2020-10-18T06:30:00Z,44489,9302001,West Chedabucto Bay,0.0,45.48687,-61.14100000000001,18,2020-10-18T06:30:00.000Z,110,2020-10-18T06:33:09.403Z,45.48733,100,-61.1411,100,8.7,100,12.7,100,12.5,100,0.0,100,3.6,100,,-1,,-1,,-1,,-1,,-1,,-1,,-1,,-1,1027.7,100,33.8,100,297,100,39.2,100,5.0,100,1,1,4.0,1,1027.7,1,1027.7,1027.7,33.8,32.8,297,302,39.2,38.2,5.0,4.0
2020-10-18T06:40:00Z,44489,9302001,West Chedabucto Bay,0.0,45.48687,-61.14100000000001,18,2020-10-18T06:40:00.000Z,110,2020-10-18T06:43:10.880Z,45.48735,100,-61.141119999999994,100,8.7,100,12.7,100,12.4,100,0.0,100,3.6,100,,-1,,-1,,-1,,-1,,-1,,-1,,-1,,-1,1028.0,100,34.2,100,295,100,40.0,100,5.0,100,1,1,4.2,1,1028.0,1,1028.0,1028.0,34.2,33.5,295,300,40.0,39.6,5.0,4.0
2020-10-18T06:50:00Z,44489,9302001,West Chedabucto Bay,0.0,45.48687,-61.14100000000001,18,2020-10-18T06:50:00.000Z,110,2020-10-18T06:53:19.621Z,45.48733,100,-61.1411,100,8.6,100,12.7,100,12.4,100,0.0,100,3.6,100,,-1,,-1,,-1,,-1,,-1,,-1,,-1,,-1,1028.2,100,34.6,100,299,100,41.4,100,5.0,100,1,1,4.2,1,1028.2,1,1028.2,1028.2,34.6,33.8,299,304,41.4,40.0,5.0,4.0
2020-10-18T07:00:00Z,44489,9302001,West Chedabucto Bay,0.0,45.48687,-61.14100000000001,18,2020-10-18T07:00:00.000Z,108,2020-10-18T07:03:24.188Z,45.48733,100,-61.141130000000004,100,8.6,100,12.6,100,12.4,100,0.0,100,3.6,100,0.4,100,1.1,100,3.9,100,0.6,100,0.7,100,4.1,100,3.1,100,6.3,100,1028.2,100,36.0,100,294,100,43.6,100,5.0,100,1,1,3.9,1,1028.2,1,1028.2,1028.2,36.0,34.9,294,299,43.6,43.2,5.0,4.0
2020-10-18T07:10:00Z,44489,9302001,West Chedabucto Bay,0.0,45.48687,-61.14100000000001,18,2020-10-18T07:10:00.000Z,110,2020-10-18T07:16:25.837Z,45.48735,100,-61.1411,100,8.5,100,12.6,100,12.5,100,0.0,100,3.6,100,,-1,,-1,,-1,,-1,,-1,,-1,,-1,,-1,1028.5,100,34.2,100,299,100,40.3,100,5.0,100,1,1,3.9,1,1028.5,1,1028.5,1028.5,34.2,33.5,299,304,40.3,39.6,5.0,4.0
2020-10-18T07:20:00Z,44489,9302001,West Chedabucto Bay,0.0,45.48687,-61.14100000000001,18,2020-10-18T07:20:00.000Z,110,2020-10-18T07:23:28.107Z,45.48735,100,-61.141119999999994,100,8.6,100,12.6,100,12.5,100,0.0,100,3.6,100,,-1,,-1,,-1,,-1,,-1,,-1,,-1,,-1,1028.7,100,31.7,100,299,100,37.8,100,5.0,100,1,1,3.8,1,1028.7,1,1028.7,1028.7,31.7,31.0,299,305,37.8,37.8,5.0,4.0
2020-10-18T07:30:00Z,44489,9302001,West Chedabucto Bay,0.0,45.48687,-61.14100000000001,18,2020-10-18T07:30:00.000Z,110,2020-10-18T07:33:24.725Z,45.48735,100,-61.141130000000004,100,8.5,100,12.6,100,12.5,100,0.0,100,3.6,100,,-1,,-1,,-1,,-1,,-1,,-1,,-1,,-1,1029.0,100,28.1,100,296,100,36.7,100,5.0,100,2,1,3.7,1,1029.0,1,1029.0,1029.0,28.1,27.4,296,301,36.7,36.4,5.0,4.0
2020-10-18T07:40:00Z,44489,9302001,West Chedabucto Bay,0.0,45.48687,-61.14100000000001,18,2020-10-18T07:40:00.000Z,110,2020-10-18T07:43:25.159Z,45.48735,100,-61.14115,100,8.4,100,12.6,100,12.4,100,0.0,100,3.6,100,,-1,,-1,,-1,,-1,,-1,,-1,,-1,,-1,1029.2,100,25.2,100,299,100,35.3,100,5.0,100,3,1,3.7,1,1029.2,1,1029.2,1029.2,25.2,24.5,299,304,35.3,33.8,5.0,4.0
2020-10-18T07:50:00Z,44489,9302001,West Chedabucto Bay,0.0,45.48687,-61.14100000000001,18,2020-10-18T07:50:00.000Z,110,2020-10-18T07:53:28.864Z,45.48735,100,-61.141130000000004,100,8.5,100,12.6,100,12.4,100,0.0,100,3.6,100,,-1,,-1,,-1,,-1,,-1,,-1,,-1,,-1,1029.2,100,29.9,100,305,100,36.7,100,5.0,100,1,1,3.4,1,1029.2,1,1029.2,1029.2,29.9,29.5,305,311,36.7,36.4,5.0,4.0
2020-10-18T08:00:00Z,44489,9302001,West Chedabucto Bay,0.0,45.48687,-61.14100000000001,18,2020-10-18T08:00:00.000Z,108,2020-10-18T08:03:27.606Z,45.48735,100,-61.14115,100,8.5,100,12.6,100,12.4,100,0.0,100,3.6,100,0.3,100,0.8,100,3.6,100,0.5,100,0.6,100,3.8,100,3.0,100,6.5,100,1029.2,100,32.4,100,308,100,41.8,100,5.0,100,1,1,3.0,1,1029.2,1,1029.2,1029.2,32.4,31.7,308,313,41.8,41.0,5.0,4.0
2020-10-18T08:10:00Z,44489,9302001,West Chedabucto Bay,0.0,45.48687,-61.14100000000001,18,2020-10-18T08:10:00.000Z,110,2020-10-18T08:15:40.583Z,45.48733,100,-61.141119999999994,100,8.7,100,12.6,100,12.5,100,0.0,100,3.6,100,,-1,,-1,,-1,,-1,,-1,,-1,,-1,,-1,1029.3,100,36.4,100,310,100,46.4,100,5.0,100,1,1,3.1,1,1029.3,1,1029.3,1029.3,36.4,35.6,310,315,46.4,44.3,5.0,4.0
2020-10-18T08:20:00Z,44489,9302001,West Chedabucto Bay,0.0,45.48687,-61.14100000000001,18,2020-10-18T08:20:00.000Z,110,2020-10-18T08:23:42.495Z,45.48733,100,-61.14113,100,8.8,100,12.6,100,12.5,100,0.0,100,3.6,100,,-1,,-1,,-1,,-1,,-1,,-1,,-1,,-1,1029.2,100,41.0,100,309,100,50.0,100,5.0,100,1,1,2.8,1,1029.2,1,1029.2,1029.2,41.0,40.0,309,314,50.0,47.2,5.0,4.0
2020-10-18T08:30:00Z,44489,9302001,West Chedabucto Bay,0.0,45.48687,-61.14100000000001,18,2020-10-18T08:30:00.000Z,110,2020-10-18T08:32:44.450Z,45.487320000000004,100,-61.14115,100,8.8,100,12.6,100,12.5,100,0.0,100,3.6,100,,-1,,-1,,-1,,-1,,-1,,-1,,-1,,-1,1029.3,100,40.3,100,311,100,48.2,100,5.0,100,1,1,2.7,1,1029.3,1,1029.3,1029.3,40.3,39.2,311,316,48.2,47.5,5.0,4.0
2020-10-18T08:40:00Z,44489,9302001,West Chedabucto Bay,0.0,45.48687,-61.14100000000001,18,2020-10-18T08:40:00.000Z,110,2020-10-18T08:43:46.514Z,45.4873,100,-61.14115,100,8.9,100,12.6,100,12.4,100,0.0,100,3.6,100,,-1,,-1,,-1,,-1,,-1,,-1,,-1,,-1,1029.6,100,34.6,100,315,100,43.6,100,5.0,100,1,1,3.0,1,1029.6,1,1029.6,1029.6,34.6,33.8,315,321,43.6,43.6,5.0,4.0
2020-10-18T08:50:00Z,44489,9302001,West Chedabucto Bay,0.0,45.48687,-61.14100000000001,18,2020-10-18T08:50:00.000Z,110,2020-10-18T08:52:55.592Z,45.48732,100,-61.14118000000001,100,8.9,100,12.6,100,12.4,100,0.0,100,3.6,100,,-1,,-1,,-1,,-1,,-1,,-1,,-1,,-1,1030.0,100,29.5,100,327,100,38.2,100,5.0,100,1,1,3.1,1,1030.0,1,1030.0,1030.0,29.5,28.8,327,332,38.2,37.8,5.0,4.0
2020-10-18T09:00:00Z,44489,9302001,West Chedabucto Bay,0.0,45.48687,-61.14100000000001,18,2020-10-18T09:00:00.000Z,108,2020-10-18T09:03:27.292Z,45.487320000000004,100,-61.141130000000004,100,9.0,100,12.6,100,12.4,100,0.0,100,3.6,100,0.4,100,1.0,100,3.2,100,0.5,100,0.6,100,3.1,100,3.0,100,3.1,100,1030.0,100,31.3,100,330,100,37.4,100,5.0,100,2,1,2.6,1,1030.0,1,1030.0,1030.0,31.3,30.6,330,335,37.4,36.7,5.0,4.0
2020-10-18T09:10:00Z,44489,9302001,West Chedabucto Bay,0.0,45.48687,-61.14100000000001,18,2020-10-18T09:10:00.000Z,110,2020-10-18T09:16:02.882Z,45.48733,100,-61.1412,100,8.9,100,12.6,100,12.5,100,0.0,100,3.6,100,,-1,,-1,,-1,,-1,,-1,,-1,,-1,,-1,1030.1,100,31.7,100,325,100,37.4,100,5.0,100,1,1,2.7,1,1030.1,1,1030.1,1030.1,31.7,31.0,325,330,37.4,37.1,5.0,4.0
2020-10-18T09:20:00Z,44489,9302001,West Chedabucto Bay,0.0,45.48687,-61.14100000000001,18,2020-10-18T09:20:00.000Z,110,2020-10-18T09:22:58.552Z,45.48733,100,-61.14115,100,8.9,100,12.6,100,12.5,100,0.0,100,3.6,100,,-1,,-1,,-1,,-1,,-1,,-1,,-1,,-1,1030.4,100,26.3,100,325,100,32.8,100,5.0,100,2,1,2.9,1,1030.4,1,1030.4,1030.4,26.3,25.9,325,330,32.8,32.0,5.0,4.0
2020-10-18T09:30:00Z,44489,9302001,West Chedabucto Bay,0.0,45.48687,-61.14100000000001,18,2020-10-18T09:30:00.000Z,110,2020-10-18T09:33:02.528Z,45.487320000000004,100,-61.141119999999994,100,9.0,100,12.6,100,12.5,100,0.0,100,3.6,100,,-1,,-1,,-1,,-1,,-1,,-1,,-1,,-1,1030.7,100,23.0,100,330,100,30.2,100,5.0,100,3,1,3.0,1,1030.7,1,1030.7,1030.7,23.0,22.7,330,335,30.2,29.9,5.0,4.0
2020-10-18T09:40:00Z,44489,9302001,West Chedabucto Bay,0.0,45.48687,-61.14100000000001,18,2020-10-18T09:40:00.000Z,110,2020-10-18T09:43:00.971Z,45.48733,100,-61.14115,100,8.9,100,12.6,100,12.4,100,0.0,100,3.6,100,,-1,,-1,,-1,,-1,,-1,,-1,,-1,,-1,1030.8,100,21.2,100,332,100,29.5,100,5.0,100,2,1,2.9,1,1030.8,1,1030.8,1030.8,21.2,20.9,332,337,29.5,28.8,5.0,4.0
2020-10-18T09:50:00Z,44489,9302001,West Chedabucto Bay,0.0,45.48687,-61.14100000000001,18,2020-10-18T09:50:00.000Z,110,2020-10-18T09:53:02.685Z,45.48732,100,-61.14115,100,9.0,100,12.5,100,12.4,100,0.0,100,3.6,100,,-1,,-1,,-1,,-1,,-1,,-1,,-1,,-1,1030.7,100,25.6,100,328,100,34.9,100,5.0,100,1,1,2.5,1,1030.7,1,1030.7,1030.7,25.6,25.2,328,333,34.9,34.6,5.0,4.0